Storm Lake, IA

12:18 PM CDT on April 30, 2017 (GMT -0500)
Storm Lake Municipal

Weather History for KSLB - October, 2013

Change the Weather History Date:

Tuesday, October 8, 2013

  Actual Average Record
Temperature  
Mean Temperature 62 °F -  
Max Temperature 77 °F 67 °F 138 °F (1997)
Min Temperature 48 °F 42 °F 19 °F (2000)
Degree Days  
Heating Degree Days 2    
Growing Degree Days 12 (Base 50)    
Moisture  
Dew Point 42 °F    
Average Humidity 51    
Maximum Humidity 76    
Minimum Humidity 26    
Precipitation  
Precipitation 0.00 in - - ()
Sea Level Pressure  
Sea Level Pressure 29.92 in    
Wind  
Wind Speed 14 mph (South)    
Max Wind Speed 30 mph    
Max Gust Speed 39 mph    
Visibility 10 miles    
Events      
Averages and records for this station are not official NWS values.
T = Trace of Precipitation, MM = Missing Value Source: NWS Daily Summary

Daily Weather History Graph

Daily Weather History Graph

Search for Another Location

Airport or City:

Trip Planner

Search our weather history database for the weather conditions in past years. The results will help you decide how hot, cold, wet, or windy it might be!

Date:

Astronomy

Oct. 08, 2013 Rise Set
Actual Time 7:26 AM CDT 6:49 PM CDT
Civil Twilight 6:58 AM CDT 7:17 PM CDT
Nautical Twilight 6:25 AM CDT 7:50 PM CDT
Astronomical Twilight 5:52 AM CDT 8:23 PM CDT
Moon 11:26 AM CDT (10/8) 9:22 PM CDT (10/8)
Length of Visible Light 12h 19m
Length of Day
11h 23m
Waxing Crescent, 16% of the Moon is Illuminated
Oct 8
Waxing Crescent
Oct 11
First Quarter
Oct 18
Full
Oct 26
Last Quarter
Nov 3
New

Hourly Weather History & Observations

Time (CDT) Temp. Dew Point Humidity Pressure Visibility Wind Dir Wind Speed Gust Speed Precip Events Conditions
12:15 AM 51.8 °F 41.0 °F 67% 29.97 in 10.0 mi South 8.1 mph - N/A   Clear
12:35 AM 51.8 °F 41.0 °F 67% 29.96 in 10.0 mi South 8.1 mph - N/A   Clear
12:55 AM 51.8 °F 41.0 °F 67% 29.96 in 10.0 mi South 8.1 mph - N/A   Clear
1:15 AM 50.0 °F 41.0 °F 71% 29.96 in - South 10.4 mph - N/A   Clear
1:35 AM 50.0 °F 41.0 °F 71% 29.96 in 10.0 mi South 9.2 mph - N/A   Clear
1:55 AM 50.0 °F 41.0 °F 71% 29.96 in 10.0 mi South 10.4 mph - N/A   Clear
2:15 AM 51.8 °F 41.0 °F 67% 29.96 in 10.0 mi South 6.9 mph - N/A   Clear
2:35 AM 50.0 °F 41.0 °F 71% 29.96 in 10.0 mi South 10.4 mph - N/A   Clear
2:55 AM 50.0 °F 41.0 °F 71% 29.96 in 10.0 mi South 11.5 mph - N/A   Clear
3:15 AM 50.0 °F 41.0 °F 71% 29.96 in 10.0 mi South 10.4 mph - N/A   Clear
3:35 AM 50.0 °F 41.0 °F 71% 29.95 in 10.0 mi South 10.4 mph - N/A   Clear
3:55 AM 50.0 °F 41.0 °F 71% 29.95 in 10.0 mi South 11.5 mph - N/A   Clear
4:15 AM 50.0 °F 41.0 °F 71% 29.95 in 10.0 mi South 8.1 mph - N/A   Clear
4:35 AM 50.0 °F 41.0 °F 71% 29.94 in 10.0 mi South 10.4 mph - N/A   Clear
4:55 AM 48.2 °F 41.0 °F 76% 29.95 in 10.0 mi South 8.1 mph - N/A   Clear
5:15 AM 48.2 °F 41.0 °F 76% 29.95 in 10.0 mi South 9.2 mph - N/A   Clear
5:35 AM 50.0 °F 41.0 °F 71% 29.95 in 10.0 mi SSW 12.7 mph - N/A   Clear
5:55 AM 51.8 °F 41.0 °F 67% 29.95 in 10.0 mi South 12.7 mph - N/A   Clear
6:15 AM 50.0 °F 41.0 °F 71% 29.95 in 10.0 mi South 11.5 mph - N/A   Clear
6:35 AM 50.0 °F 41.0 °F 71% 29.95 in 10.0 mi South 10.4 mph - N/A   Clear
6:55 AM 50.0 °F 41.0 °F 71% 29.95 in 10.0 mi South 10.4 mph - N/A   Clear
7:15 AM 50.0 °F 41.0 °F 71% 29.95 in 10.0 mi South 13.8 mph - N/A   Clear
7:35 AM 50.0 °F 41.0 °F 71% 29.95 in 10.0 mi South 12.7 mph - N/A   Clear
7:55 AM 50.0 °F 41.0 °F 71% 29.95 in 10.0 mi South 12.7 mph - N/A   Clear
8:15 AM 51.8 °F 41.0 °F 67% 29.95 in 10.0 mi South 11.5 mph - N/A   Clear
8:35 AM 53.6 °F 41.0 °F 62% 29.95 in 10.0 mi SSW 13.8 mph - N/A   Clear
8:55 AM 55.4 °F 41.0 °F 58% 29.95 in 10.0 mi SSW 16.1 mph - N/A   Clear
9:15 AM 57.2 °F 41.0 °F 55% 29.95 in 10.0 mi SSW 18.4 mph - N/A   Clear
9:35 AM 59.0 °F 41.0 °F 51% 29.94 in 10.0 mi SSW 15.0 mph 21.9 mph N/A   Clear
9:55 AM 62.6 °F 41.0 °F 45% 29.94 in 10.0 mi SSW 19.6 mph 26.5 mph N/A   Clear
10:15 AM 64.4 °F 39.2 °F 40% 29.94 in 10.0 mi SSW 21.9 mph 27.6 mph N/A   Clear
10:35 AM 66.2 °F 41.0 °F 40% 29.94 in 10.0 mi SSW 18.4 mph 25.3 mph N/A   Clear
10:55 AM 66.2 °F 41.0 °F 40% 29.93 in 10.0 mi SSW 21.9 mph 31.1 mph N/A   Clear
11:15 AM 68.0 °F 39.2 °F 35% 29.92 in 10.0 mi SSW 23.0 mph 32.2 mph N/A   Clear
11:35 AM 69.8 °F 39.2 °F 33% 29.92 in 10.0 mi SSW 24.2 mph 32.2 mph N/A   Clear
11:55 AM 69.8 °F 37.4 °F 31% 29.92 in 10.0 mi SSW 20.7 mph 34.5 mph N/A   Clear
12:15 PM 71.6 °F 37.4 °F 29% 29.90 in 10.0 mi SSW 23.0 mph 32.2 mph N/A   Clear
12:35 PM 73.4 °F 39.2 °F 29% 29.90 in 10.0 mi SSW 26.5 mph 33.4 mph N/A   Clear
12:55 PM 73.4 °F 39.2 °F 29% 29.90 in 10.0 mi SSW 26.5 mph 35.7 mph N/A   Clear
1:15 PM 75.2 °F 39.2 °F 27% 29.89 in 10.0 mi SSW 27.6 mph 34.5 mph N/A   Clear
1:35 PM 77.0 °F 39.2 °F 26% 29.88 in 10.0 mi South 24.2 mph 31.1 mph N/A   Clear
1:55 PM 75.2 °F 41.0 °F 29% 29.87 in 10.0 mi South 27.6 mph 34.5 mph N/A   Clear
2:15 PM 77.0 °F 39.2 °F 26% 29.87 in 10.0 mi SSW 24.2 mph 33.4 mph N/A   Clear
2:35 PM 77.0 °F 39.2 °F 26% 29.86 in 10.0 mi SSW 26.5 mph 36.8 mph N/A   Clear
2:55 PM 77.0 °F 41.0 °F 28% 29.85 in 10.0 mi South 29.9 mph 38.0 mph N/A   Clear
3:15 PM 77.0 °F 41.0 °F 28% 29.86 in 10.0 mi South 23.0 mph 33.4 mph N/A   Clear
3:35 PM 77.0 °F 41.0 °F 28% 29.85 in 10.0 mi South 27.6 mph 36.8 mph N/A   Clear
3:55 PM 77.0 °F 41.0 °F 28% 29.85 in 10.0 mi South 29.9 mph 38.0 mph N/A   Clear
4:15 PM 77.0 °F 41.0 °F 28% 29.85 in 10.0 mi South 27.6 mph 39.1 mph N/A   Clear
4:35 PM 75.2 °F 41.0 °F 29% 29.85 in 10.0 mi South 26.5 mph 35.7 mph N/A   Clear
4:55 PM 75.2 °F 41.0 °F 29% 29.86 in 10.0 mi South 23.0 mph 36.8 mph N/A   Clear
5:15 PM 75.2 °F 41.0 °F 29% 29.86 in 10.0 mi South 23.0 mph 35.7 mph N/A   Clear
5:35 PM 73.4 °F 41.0 °F 31% 29.86 in 10.0 mi South 25.3 mph 35.7 mph N/A   Clear
5:55 PM 71.6 °F 41.0 °F 33% 29.86 in 10.0 mi South 24.2 mph - N/A   Clear
6:15 PM 71.6 °F 41.0 °F 33% 29.86 in 10.0 mi South 17.3 mph 32.2 mph N/A   Clear
6:35 PM 69.8 °F 42.8 °F 38% 29.87 in 10.0 mi South 17.3 mph 24.2 mph N/A   Clear
6:55 PM 68.0 °F 42.8 °F 40% 29.87 in 10.0 mi South 13.8 mph 19.6 mph N/A   Clear
7:15 PM 66.2 °F 42.8 °F 43% 29.88 in 10.0 mi South 13.8 mph - N/A   Clear
7:35 PM 66.2 °F 44.6 °F 46% 29.88 in 10.0 mi South 16.1 mph - N/A   Clear
7:55 PM 66.2 °F 44.6 °F 46% 29.89 in 10.0 mi South 16.1 mph - N/A   Clear
8:15 PM 66.2 °F 44.6 °F 46% 29.89 in 10.0 mi South 15.0 mph 21.9 mph N/A   Clear
8:35 PM 64.4 °F 44.6 °F 49% 29.89 in 10.0 mi South 16.1 mph - N/A   Clear
8:55 PM 64.4 °F 44.6 °F 49% 29.89 in 10.0 mi South 16.1 mph - N/A   Clear
9:15 PM 62.6 °F 46.4 °F 55% 29.90 in 10.0 mi South 13.8 mph - N/A   Clear
9:35 PM 62.6 °F 46.4 °F 55% 29.91 in 10.0 mi South 17.3 mph 26.5 mph N/A   Clear
9:55 PM 62.6 °F 46.4 °F 55% 29.91 in 10.0 mi South 18.4 mph 25.3 mph N/A   Clear
10:15 PM 62.6 °F 46.4 °F 55% 29.92 in 10.0 mi South 17.3 mph 23.0 mph N/A   Clear
10:35 PM 62.6 °F 46.4 °F 55% 29.92 in 10.0 mi South 17.3 mph - N/A   Clear
10:55 PM 60.8 °F 46.4 °F 59% 29.93 in 10.0 mi South 17.3 mph - N/A   Clear
11:15 PM 60.8 °F 46.4 °F 59% 29.94 in 10.0 mi South 13.8 mph 20.7 mph N/A   Clear
11:35 PM 59.0 °F 46.4 °F 63% 29.94 in 10.0 mi South 13.8 mph 20.7 mph N/A   Clear
11:55 PM 59.0 °F 46.4 °F 63% 29.95 in 10.0 mi South 12.7 mph - N/A   Clear